contact:dominique.lefevre@mio.osupytheas.fr, maurice.libes@osupytheas.fr, didier.mallarino@osupytheas.fr
Project:EMSO http://www.emso-fr.org/EMSO-France
Depth: 2436.0 m
Title:EMSO Ligure Ouest : Data MII capteur MICROCAT
DateTime_Computer,Latitude,Longitude,Temperature,Conductivity,Pressure,DateTime_Instrument
DateTime_Computer,Latitude,Longitude,degC,S m-1,dbar,DateTime_Instrument
2023-08-02T00:02:18Z,42.805,6.029,13.3048,4.60151,2470.637,2023-8-02T02:04:36Z
2023-08-02T00:05:21Z,42.805,6.029,13.3040,4.60137,2470.67,2023-8-02T02:07:39Z
2023-08-02T00:08:24Z,42.805,6.029,13.3045,4.60137,2470.661,2023-8-02T02:10:42Z
2023-08-02T00:11:27Z,42.805,6.029,13.3055,4.60166,2470.637,2023-8-02T02:13:45Z
2023-08-02T00:14:30Z,42.805,6.029,13.3048,4.60131,2470.614,2023-8-02T02:16:49Z
2023-08-02T00:17:33Z,42.805,6.029,13.3055,4.60156,2470.6,2023-8-02T02:19:52Z
2023-08-02T00:20:37Z,42.805,6.029,13.3037,4.60127,2470.6,2023-8-02T02:22:55Z
2023-08-02T00:23:40Z,42.805,6.029,13.3042,4.60118,2470.624,2023-8-02T02:25:58Z
2023-08-02T00:26:43Z,42.805,6.029,13.3044,4.60124,2470.614,2023-8-02T02:29:01Z
2023-08-02T00:29:46Z,42.805,6.029,13.3040,4.60127,2470.646,2023-8-02T02:32:04Z
2023-08-02T00:32:49Z,42.805,6.029,13.3047,4.60141,2470.637,2023-8-02T02:35:07Z
2023-08-02T00:35:52Z,42.805,6.029,13.3043,4.60137,2470.6,2023-8-02T02:38:10Z
2023-08-02T00:38:55Z,42.805,6.029,13.3042,4.60131,2470.6,2023-8-02T02:41:13Z
2023-08-02T00:41:58Z,42.805,6.029,13.3041,4.60157,2470.6,2023-8-02T02:44:16Z
2023-08-02T00:45:01Z,42.805,6.029,13.3046,4.60127,2470.6,2023-8-02T02:47:19Z
2023-08-02T00:48:04Z,42.805,6.029,13.3049,4.60147,2470.577,2023-8-02T02:50:22Z
2023-08-02T00:51:07Z,42.805,6.029,13.3044,4.60173,2470.577,2023-8-02T02:53:25Z
2023-08-02T00:54:10Z,42.805,6.029,13.3054,4.60163,2470.553,2023-8-02T02:56:29Z
2023-08-02T00:57:13Z,42.805,6.029,13.3063,4.60155,2470.577,2023-8-02T02:59:32Z
2023-08-02T01:00:17Z,42.805,6.029,13.3045,4.60177,2470.6,2023-8-02T03:02:35Z
2023-08-02T01:03:20Z,42.805,6.029,13.3061,4.60162,2470.591,2023-8-02T03:05:38Z
2023-08-02T01:06:23Z,42.805,6.029,13.3039,4.60167,2470.6,2023-8-02T03:08:41Z
2023-08-02T01:09:26Z,42.805,6.029,13.3041,4.60152,2470.577,2023-8-02T03:11:44Z
2023-08-02T01:12:29Z,42.805,6.029,13.3043,4.60147,2470.577,2023-8-02T03:14:47Z
2023-08-02T01:15:32Z,42.805,6.029,13.3038,4.60185,2470.553,2023-8-02T03:17:50Z
2023-08-02T01:18:35Z,42.805,6.029,13.3077,4.60150,2470.591,2023-8-02T03:20:53Z
2023-08-02T01:21:38Z,42.805,6.029,13.3075,4.60174,2470.567,2023-8-02T03:23:56Z
2023-08-02T01:24:41Z,42.805,6.029,13.3076,4.60131,2470.591,2023-8-02T03:26:59Z
2023-08-02T01:27:44Z,42.805,6.029,13.3063,4.60144,2470.577,2023-8-02T03:30:02Z
2023-08-02T01:30:47Z,42.805,6.029,13.3069,4.60131,2470.553,2023-8-02T03:33:05Z
2023-08-02T01:33:50Z,42.805,6.029,13.3085,4.60143,2470.577,2023-8-02T03:36:09Z
2023-08-02T01:36:53Z,42.805,6.029,13.3076,4.60173,2470.553,2023-8-02T03:39:12Z
2023-08-02T01:39:56Z,42.805,6.029,13.3070,4.60178,2470.577,2023-8-02T03:42:15Z
2023-08-02T01:43:00Z,42.805,6.029,13.3065,4.60186,2470.577,2023-8-02T03:45:18Z
2023-08-02T01:46:03Z,42.805,6.029,13.3081,4.60184,2470.567,2023-8-02T03:48:21Z
2023-08-02T01:49:06Z,42.805,6.029,13.3058,4.60180,2470.577,2023-8-02T03:51:24Z
2023-08-02T01:52:09Z,42.805,6.029,13.3054,4.60140,2470.567,2023-8-02T03:54:27Z
2023-08-02T01:55:12Z,42.805,6.029,13.3070,4.60160,2470.6,2023-8-02T03:57:30Z
2023-08-02T01:58:15Z,42.805,6.029,13.3082,4.60221,2470.553,2023-8-02T04:00:33Z
2023-08-02T02:01:18Z,42.805,6.029,13.3085,4.60203,2470.567,2023-8-02T04:03:36Z
2023-08-02T02:04:21Z,42.805,6.029,13.3093,4.60179,2470.544,2023-8-02T04:06:39Z
2023-08-02T02:07:24Z,42.805,6.029,13.3089,4.60179,2470.591,2023-8-02T04:09:42Z
2023-08-02T02:10:27Z,42.805,6.029,13.3095,4.60142,2470.577,2023-8-02T04:12:45Z
2023-08-02T02:13:30Z,42.805,6.029,13.3104,4.60131,2470.567,2023-8-02T04:15:49Z
2023-08-02T02:16:33Z,42.805,6.029,13.3099,4.60160,2470.577,2023-8-02T04:18:52Z
2023-08-02T02:19:37Z,42.805,6.029,13.3093,4.60173,2470.553,2023-8-02T04:21:55Z
2023-08-02T02:22:40Z,42.805,6.029,13.3092,4.60172,2470.614,2023-8-02T04:24:58Z
2023-08-02T02:25:43Z,42.805,6.029,13.3070,4.60183,2470.591,2023-8-02T04:28:01Z
2023-08-02T02:28:46Z,42.805,6.029,13.3046,4.60182,2470.567,2023-8-02T04:31:04Z
2023-08-02T02:31:49Z,42.805,6.029,13.3057,4.60176,2470.577,2023-8-02T04:34:07Z
2023-08-02T02:34:52Z,42.805,6.029,13.3083,4.60233,2470.553,2023-8-02T04:37:10Z
2023-08-02T02:37:55Z,42.805,6.029,13.3095,4.60184,2470.577,2023-8-02T04:40:13Z
2023-08-02T02:40:58Z,42.805,6.029,13.3115,4.60238,2470.567,2023-8-02T04:43:16Z
2023-08-02T02:44:01Z,42.805,6.029,13.3132,4.60158,2470.567,2023-8-02T04:46:19Z
2023-08-02T02:47:04Z,42.805,6.029,13.3111,4.60205,2470.577,2023-8-02T04:49:22Z
2023-08-02T02:50:07Z,42.805,6.029,13.3101,4.60296,2470.567,2023-8-02T04:52:25Z
2023-08-02T02:53:10Z,42.805,6.029,13.3082,4.60176,2470.591,2023-8-02T04:55:29Z
2023-08-02T02:56:13Z,42.805,6.029,13.3104,4.60175,2470.567,2023-8-02T04:58:32Z
2023-08-02T02:59:16Z,42.805,6.029,13.3118,4.60180,2470.567,2023-8-02T05:01:35Z
2023-08-02T03:02:20Z,42.805,6.029,13.3104,4.60127,2470.591,2023-8-02T05:04:38Z
2023-08-02T03:05:23Z,42.805,6.029,13.3090,4.60119,2470.591,2023-8-02T05:07:41Z
2023-08-02T03:08:26Z,42.805,6.029,13.3082,4.60122,2470.577,2023-8-02T05:10:44Z
2023-08-02T03:11:29Z,42.805,6.029,13.3078,4.60135,2470.553,2023-8-02T05:13:47Z
2023-08-02T03:14:32Z,42.805,6.029,13.3061,4.60135,2470.567,2023-8-02T05:16:50Z
2023-08-02T03:17:35Z,42.805,6.029,13.3063,4.60135,2470.544,2023-8-02T05:19:53Z
2023-08-02T03:20:38Z,42.805,6.029,13.3070,4.60131,2470.614,2023-8-02T05:22:56Z
2023-08-02T03:23:41Z,42.805,6.029,13.3073,4.60122,2470.577,2023-8-02T05:25:59Z
2023-08-02T03:26:44Z,42.805,6.029,13.3070,4.60114,2470.553,2023-8-02T05:29:02Z
2023-08-02T03:29:47Z,42.805,6.029,13.3068,4.60112,2470.553,2023-8-02T05:32:05Z
2023-08-02T03:32:50Z,42.805,6.029,13.3075,4.60183,2470.553,2023-8-02T05:35:09Z
2023-08-02T03:35:53Z,42.805,6.029,13.3075,4.60176,2470.577,2023-8-02T05:38:12Z
2023-08-02T03:38:57Z,42.805,6.029,13.3072,4.60175,2470.567,2023-8-02T05:41:15Z
2023-08-02T03:42:00Z,42.805,6.029,13.3067,4.60178,2470.577,2023-8-02T05:44:18Z
2023-08-02T03:45:03Z,42.805,6.029,13.3079,4.60149,2470.591,2023-8-02T05:47:21Z
2023-08-02T03:48:06Z,42.805,6.029,13.3084,4.60172,2470.591,2023-8-02T05:50:24Z
2023-08-02T03:51:09Z,42.805,6.029,13.3091,4.60172,2470.553,2023-8-02T05:53:27Z
2023-08-02T03:54:12Z,42.805,6.029,13.3062,4.60157,2470.577,2023-8-02T05:56:30Z
2023-08-02T03:57:15Z,42.805,6.029,13.3081,4.60155,2470.591,2023-8-02T05:59:33Z
2023-08-02T04:00:18Z,42.805,6.029,13.3091,4.60172,2470.591,2023-8-02T06:02:36Z
2023-08-02T04:03:21Z,42.805,6.029,13.3089,4.60155,2470.591,2023-8-02T06:05:39Z
2023-08-02T04:06:24Z,42.805,6.029,13.3077,4.60121,2470.553,2023-8-02T06:08:42Z
2023-08-02T04:09:27Z,42.805,6.029,13.3065,4.60123,2470.614,2023-8-02T06:11:45Z
2023-08-02T04:12:30Z,42.805,6.029,13.3063,4.60125,2470.577,2023-8-02T06:14:49Z
2023-08-02T04:15:33Z,42.805,6.029,13.3061,4.60113,2470.624,2023-8-02T06:17:52Z
2023-08-02T04:18:36Z,42.805,6.029,13.3055,4.60130,2470.614,2023-8-02T06:20:55Z
2023-08-02T04:21:40Z,42.805,6.029,13.3065,4.60127,2470.6,2023-8-02T06:23:58Z
2023-08-02T04:24:43Z,42.805,6.029,13.3062,4.60133,2470.577,2023-8-02T06:27:01Z
2023-08-02T04:27:46Z,42.805,6.029,13.3056,4.60131,2470.637,2023-8-02T06:30:04Z
2023-08-02T04:30:49Z,42.805,6.029,13.3070,4.60141,2470.614,2023-8-02T06:33:07Z
2023-08-02T04:33:52Z,42.805,6.029,13.3078,4.60114,2470.6,2023-8-02T06:36:10Z
2023-08-02T04:36:55Z,42.805,6.029,13.3042,4.60132,2470.624,2023-8-02T06:39:13Z
2023-08-02T04:39:58Z,42.805,6.029,13.3059,4.60122,2470.614,2023-8-02T06:42:16Z
2023-08-02T04:43:01Z,42.805,6.029,13.3060,4.60160,2470.637,2023-8-02T06:45:19Z
2023-08-02T04:46:04Z,42.805,6.029,13.3062,4.60121,2470.6,2023-8-02T06:48:22Z
2023-08-02T04:49:07Z,42.805,6.029,13.3055,4.60137,2470.637,2023-8-02T06:51:25Z
2023-08-02T04:52:10Z,42.805,6.029,13.3054,4.60113,2470.624,2023-8-02T06:54:29Z
2023-08-02T04:55:13Z,42.805,6.029,13.3065,4.60119,2470.661,2023-8-02T06:57:32Z
2023-08-02T04:58:16Z,42.805,6.029,13.3055,4.60119,2470.61,2023-8-02T07:00:35Z
2023-08-02T05:01:20Z,42.805,6.029,13.3054,4.60120,2470.624,2023-8-02T07:03:38Z
2023-08-02T05:04:23Z,42.805,6.029,13.3047,4.60137,2470.684,2023-8-02T07:06:41Z
2023-08-02T05:07:26Z,42.805,6.029,13.3058,4.60157,2470.661,2023-8-02T07:09:44Z
2023-08-02T05:10:29Z,42.805,6.029,13.3058,4.60132,2470.646,2023-8-02T07:12:47Z
2023-08-02T05:13:32Z,42.805,6.029,13.3054,4.60121,2470.624,2023-8-02T07:15:50Z
2023-08-02T05:16:35Z,42.805,6.029,13.3054,4.60104,2470.646,2023-8-02T07:18:53Z
2023-08-02T05:19:38Z,42.805,6.029,13.3096,4.60131,2470.646,2023-8-02T07:21:56Z
2023-08-02T05:22:41Z,42.805,6.029,13.3061,4.60114,2470.67,2023-8-02T07:24:59Z
2023-08-02T05:25:44Z,42.805,6.029,13.3070,4.60112,2470.67,2023-8-02T07:28:02Z
2023-08-02T05:28:47Z,42.805,6.029,13.3062,4.60119,2470.684,2023-8-02T07:31:05Z
2023-08-02T05:31:50Z,42.805,6.029,13.3057,4.60107,2470.693,2023-8-02T07:34:09Z
2023-08-02T05:34:53Z,42.805,6.029,13.3059,4.60105,2470.684,2023-8-02T07:37:12Z
2023-08-02T05:37:56Z,42.805,6.029,13.3052,4.60108,2470.661,2023-8-02T07:40:15Z
2023-08-02T05:41:00Z,42.805,6.029,13.3065,4.60123,2470.684,2023-8-02T07:43:18Z
2023-08-02T05:44:03Z,42.805,6.029,13.3079,4.60104,2470.684,2023-8-02T07:46:21Z
2023-08-02T05:47:06Z,42.805,6.029,13.3060,4.60104,2470.717,2023-8-02T07:49:24Z
2023-08-02T05:50:09Z,42.805,6.029,13.3061,4.60128,2470.684,2023-8-02T07:52:27Z
2023-08-02T05:53:12Z,42.805,6.029,13.3068,4.60119,2470.693,2023-8-02T07:55:30Z
2023-08-02T05:56:15Z,42.805,6.029,13.3050,4.60124,2470.693,2023-8-02T07:58:33Z
2023-08-02T05:59:18Z,42.805,6.029,13.3065,4.60120,2470.707,2023-8-02T08:01:36Z
2023-08-02T06:02:21Z,42.805,6.029,13.3051,4.60131,2470.73,2023-8-02T08:04:39Z
2023-08-02T06:05:24Z,42.805,6.029,13.3059,4.60130,2470.684,2023-8-02T08:07:42Z
2023-08-02T06:08:27Z,42.805,6.029,13.3043,4.60152,2470.646,2023-8-02T08:10:45Z
2023-08-02T06:11:30Z,42.805,6.029,13.3056,4.60103,2470.684,2023-8-02T08:13:48Z
2023-08-02T06:14:33Z,42.805,6.029,13.3050,4.60116,2470.67,2023-8-02T08:16:52Z
2023-08-02T06:17:36Z,42.805,6.029,13.3067,4.60165,2470.73,2023-8-02T08:19:55Z
2023-08-02T06:20:40Z,42.805,6.029,13.3064,4.60107,2470.717,2023-8-02T08:22:58Z
2023-08-02T06:23:43Z,42.805,6.029,13.3058,4.60114,2470.693,2023-8-02T08:26:01Z
2023-08-02T06:26:46Z,42.805,6.029,13.3069,4.60128,2470.684,2023-8-02T08:29:04Z
2023-08-02T06:29:49Z,42.805,6.029,13.3074,4.60125,2470.74,2023-8-02T08:32:07Z
2023-08-02T06:32:52Z,42.805,6.029,13.3067,4.60145,2470.73,2023-8-02T08:35:10Z
2023-08-02T06:35:55Z,42.805,6.029,13.3051,4.60126,2470.73,2023-8-02T08:38:13Z
2023-08-02T06:38:58Z,42.805,6.029,13.3074,4.60110,2470.73,2023-8-02T08:41:16Z
2023-08-02T06:42:01Z,42.805,6.029,13.3061,4.60117,2470.693,2023-8-02T08:44:19Z
2023-08-02T06:45:04Z,42.805,6.029,13.3061,4.60147,2470.73,2023-8-02T08:47:22Z
2023-08-02T06:48:07Z,42.805,6.029,13.3069,4.60142,2470.73,2023-8-02T08:50:25Z
2023-08-02T06:51:10Z,42.805,6.029,13.3057,4.60131,2470.684,2023-8-02T08:53:28Z
2023-08-02T06:54:13Z,42.805,6.029,13.3068,4.60114,2470.717,2023-8-02T08:56:32Z
2023-08-02T06:57:16Z,42.805,6.029,13.3053,4.60147,2470.74,2023-8-02T08:59:35Z
2023-08-02T07:00:19Z,42.805,6.029,13.3065,4.60160,2470.693,2023-8-02T09:02:38Z
2023-08-02T07:03:23Z,42.805,6.029,13.3068,4.60154,2470.707,2023-8-02T09:05:41Z
2023-08-02T07:06:26Z,42.805,6.029,13.3046,4.60144,2470.754,2023-8-02T09:08:44Z
2023-08-02T07:09:29Z,42.805,6.029,13.3049,4.60156,2470.73,2023-8-02T09:11:47Z
2023-08-02T07:12:32Z,42.805,6.029,13.3056,4.60228,2470.717,2023-8-02T09:14:50Z
2023-08-02T07:15:35Z,42.805,6.029,13.3091,4.60167,2470.707,2023-8-02T09:17:53Z
2023-08-02T07:18:38Z,42.805,6.029,13.3093,4.60168,2470.73,2023-8-02T09:20:56Z
2023-08-02T07:21:41Z,42.805,6.029,13.3087,4.60127,2470.73,2023-8-02T09:23:59Z
2023-08-02T07:24:44Z,42.805,6.029,13.3089,4.60157,2470.717,2023-8-02T09:27:02Z
2023-08-02T07:27:47Z,42.805,6.029,13.3084,4.60140,2470.73,2023-8-02T09:30:05Z
2023-08-02T07:30:50Z,42.805,6.029,13.3104,4.60184,2470.707,2023-8-02T09:33:08Z
2023-08-02T07:33:53Z,42.805,6.029,13.3052,4.60160,2470.693,2023-8-02T09:36:11Z
2023-08-02T07:36:56Z,42.805,6.029,13.3101,4.60165,2470.707,2023-8-02T09:39:15Z
2023-08-02T07:39:59Z,42.805,6.029,13.3093,4.60180,2470.717,2023-8-02T09:42:18Z
2023-08-02T07:43:03Z,42.805,6.029,13.3107,4.60187,2470.717,2023-8-02T09:45:21Z
2023-08-02T07:46:06Z,42.805,6.029,13.3088,4.60173,2470.717,2023-8-02T09:48:24Z
2023-08-02T07:49:09Z,42.805,6.029,13.3081,4.60184,2470.707,2023-8-02T09:51:27Z
2023-08-02T07:52:12Z,42.805,6.029,13.3094,4.60122,2470.693,2023-8-02T09:54:30Z
2023-08-02T07:55:15Z,42.805,6.029,13.3092,4.60147,2470.707,2023-8-02T09:57:33Z
2023-08-02T07:58:18Z,42.805,6.029,13.3044,4.60131,2470.717,2023-8-02T10:00:36Z
2023-08-02T08:01:21Z,42.805,6.029,13.3042,4.60190,2470.74,2023-8-02T10:03:39Z
2023-08-02T08:04:24Z,42.805,6.029,13.3070,4.60157,2470.707,2023-8-02T10:06:42Z
2023-08-02T08:07:27Z,42.805,6.029,13.3058,4.60169,2470.693,2023-8-02T10:09:45Z
2023-08-02T08:10:30Z,42.805,6.029,13.3070,4.60200,2470.717,2023-8-02T10:12:48Z
2023-08-02T08:13:33Z,42.805,6.029,13.3089,4.60178,2470.684,2023-8-02T10:15:51Z
2023-08-02T08:16:36Z,42.805,6.029,13.3092,4.60193,2470.646,2023-8-02T10:18:55Z
2023-08-02T08:19:39Z,42.805,6.029,13.3064,4.60194,2470.67,2023-8-02T10:21:58Z
2023-08-02T08:22:43Z,42.805,6.029,13.3094,4.60141,2470.684,2023-8-02T10:25:01Z
2023-08-02T08:25:46Z,42.805,6.029,13.3066,4.60167,2470.707,2023-8-02T10:28:04Z
2023-08-02T08:28:49Z,42.805,6.029,13.3076,4.60197,2470.707,2023-8-02T10:31:07Z
2023-08-02T08:31:50Z,42.805,6.029,13.3082,4.60188,2470.661,2023-8-02T10:34:09Z
2023-08-02T08:34:53Z,42.805,6.029,13.3097,4.60182,2470.67,2023-8-02T10:37:12Z
2023-08-02T08:37:57Z,42.805,6.029,13.3091,4.60199,2470.684,2023-8-02T10:40:15Z
2023-08-02T08:41:00Z,42.805,6.029,13.3093,4.60155,2470.717,2023-8-02T10:43:18Z
2023-08-02T08:44:03Z,42.805,6.029,13.3073,4.60168,2470.684,2023-8-02T10:46:21Z
2023-08-02T08:47:06Z,42.805,6.029,13.3060,4.60148,2470.693,2023-8-02T10:49:24Z
2023-08-02T08:50:09Z,42.805,6.029,13.3061,4.60147,2470.693,2023-8-02T10:52:27Z
2023-08-02T08:53:12Z,42.805,6.029,13.3074,4.60110,2470.693,2023-8-02T10:55:30Z
2023-08-02T08:56:15Z,42.805,6.029,13.3064,4.60169,2470.717,2023-8-02T10:58:33Z
2023-08-02T08:59:18Z,42.805,6.029,13.3051,4.60180,2470.67,2023-8-02T11:01:36Z
2023-08-02T09:02:21Z,42.805,6.029,13.3080,4.60198,2470.717,2023-8-02T11:04:39Z
2023-08-02T09:05:24Z,42.805,6.029,13.3087,4.60191,2470.707,2023-8-02T11:07:42Z
2023-08-02T09:08:27Z,42.805,6.029,13.3073,4.60189,2470.67,2023-8-02T11:10:46Z
2023-08-02T09:11:30Z,42.805,6.029,13.3067,4.60166,2470.684,2023-8-02T11:13:49Z
2023-08-02T09:14:33Z,42.805,6.029,13.3071,4.60140,2470.67,2023-8-02T11:16:52Z
2023-08-02T09:17:37Z,42.805,6.029,13.3104,4.60214,2470.684,2023-8-02T11:19:55Z
2023-08-02T09:20:40Z,42.805,6.029,13.3095,4.60175,2470.67,2023-8-02T11:22:58Z
2023-08-02T09:23:43Z,42.805,6.029,13.3061,4.60205,2470.684,2023-8-02T11:26:01Z
2023-08-02T09:26:46Z,42.805,6.029,13.3080,4.60190,2470.707,2023-8-02T11:29:04Z
2023-08-02T09:29:49Z,42.805,6.029,13.3082,4.60176,2470.661,2023-8-02T11:32:07Z
2023-08-02T09:32:52Z,42.805,6.029,13.3093,4.60135,2470.693,2023-8-02T11:35:10Z
2023-08-02T09:35:55Z,42.805,6.029,13.3101,4.60124,2470.67,2023-8-02T11:38:13Z
2023-08-02T09:38:58Z,42.805,6.029,13.3072,4.60185,2470.707,2023-8-02T11:41:16Z
2023-08-02T09:42:01Z,42.805,6.029,13.3085,4.60180,2470.693,2023-8-02T11:44:19Z
2023-08-02T09:45:04Z,42.805,6.029,13.3081,4.60168,2470.646,2023-8-02T11:47:23Z
2023-08-02T09:48:07Z,42.805,6.029,13.3088,4.60155,2470.646,2023-8-02T11:50:26Z
2023-08-02T09:51:10Z,42.805,6.029,13.3100,4.60135,2470.646,2023-8-02T11:53:29Z
2023-08-02T09:54:14Z,42.805,6.029,13.3091,4.60141,2470.67,2023-8-02T11:56:32Z
2023-08-02T09:57:17Z,42.805,6.029,13.3086,4.60250,2470.67,2023-8-02T11:59:35Z
2023-08-02T10:00:20Z,42.805,6.029,13.3093,4.60192,2470.624,2023-8-02T12:02:38Z
2023-08-02T10:03:23Z,42.805,6.029,13.3101,4.60213,2470.661,2023-8-02T12:05:41Z
2023-08-02T10:06:26Z,42.805,6.029,13.3106,4.60154,2470.661,2023-8-02T12:08:44Z
2023-08-02T10:09:29Z,42.805,6.029,13.3099,4.60165,2470.646,2023-8-02T12:11:47Z
2023-08-02T10:12:32Z,42.805,6.029,13.3071,4.60155,2470.661,2023-8-02T12:14:50Z
2023-08-02T10:15:35Z,42.805,6.029,13.3072,4.60148,2470.646,2023-8-02T12:17:53Z
2023-08-02T10:18:38Z,42.805,6.029,13.3067,4.60220,2470.646,2023-8-02T12:20:56Z
2023-08-02T10:21:41Z,42.805,6.029,13.3070,4.60175,2470.624,2023-8-02T12:23:59Z
2023-08-02T10:24:44Z,42.805,6.029,13.3083,4.60266,2470.637,2023-8-02T12:27:03Z
2023-08-02T10:27:47Z,42.805,6.029,13.3063,4.60179,2470.624,2023-8-02T12:30:06Z
2023-08-02T10:30:49Z,42.805,6.029,13.3084,4.60144,2470.646,2023-8-02T12:33:07Z
2023-08-02T10:33:52Z,42.805,6.029,13.3073,4.60178,2470.6,2023-8-02T12:36:10Z
2023-08-02T10:36:55Z,42.805,6.029,13.3076,4.60164,2470.646,2023-8-02T12:39:13Z
2023-08-02T10:39:58Z,42.805,6.029,13.3061,4.60158,2470.637,2023-8-02T12:42:16Z
2023-08-02T10:43:01Z,42.805,6.029,13.3069,4.60167,2470.646,2023-8-02T12:45:20Z
2023-08-02T10:46:04Z,42.805,6.029,13.3059,4.60182,2470.646,2023-8-02T12:48:23Z
2023-08-02T10:49:08Z,42.805,6.029,13.3058,4.60197,2470.6,2023-8-02T12:51:26Z
2023-08-02T10:52:11Z,42.805,6.029,13.3075,4.60142,2470.624,2023-8-02T12:54:29Z
2023-08-02T10:55:14Z,42.805,6.029,13.3058,4.60188,2470.637,2023-8-02T12:57:32Z
2023-08-02T10:58:17Z,42.805,6.029,13.3039,4.60125,2470.6,2023-8-02T13:00:35Z
2023-08-02T11:01:20Z,42.805,6.029,13.3063,4.60155,2470.6,2023-8-02T13:03:38Z
2023-08-02T11:04:23Z,42.805,6.029,13.3090,4.60157,2470.6,2023-8-02T13:06:41Z
2023-08-02T11:07:26Z,42.805,6.029,13.3046,4.60178,2470.614,2023-8-02T13:09:44Z
2023-08-02T11:10:29Z,42.805,6.029,13.3070,4.60178,2470.6,2023-8-02T13:12:47Z
2023-08-02T11:13:32Z,42.805,6.029,13.3070,4.60150,2470.6,2023-8-02T13:15:50Z
2023-08-02T11:16:35Z,42.805,6.029,13.3101,4.60162,2470.577,2023-8-02T13:18:53Z
2023-08-02T11:19:38Z,42.805,6.029,13.3111,4.60188,2470.624,2023-8-02T13:21:57Z
2023-08-02T11:22:41Z,42.805,6.029,13.3100,4.60167,2470.591,2023-8-02T13:25:00Z
2023-08-02T11:25:44Z,42.805,6.029,13.3073,4.60141,2470.628,2023-8-02T13:28:03Z
2023-08-02T11:28:48Z,42.805,6.029,13.3098,4.60138,2470.591,2023-8-02T13:31:06Z
2023-08-02T11:31:51Z,42.805,6.029,13.3096,4.60150,2470.6,2023-8-02T13:34:09Z
2023-08-02T11:34:54Z,42.805,6.029,13.3097,4.60158,2470.591,2023-8-02T13:37:12Z
2023-08-02T11:37:57Z,42.805,6.029,13.3088,4.60153,2470.577,2023-8-02T13:40:15Z
2023-08-02T11:41:00Z,42.805,6.029,13.3097,4.60155,2470.553,2023-8-02T13:43:18Z
2023-08-02T11:44:03Z,42.805,6.029,13.3083,4.60147,2470.553,2023-8-02T13:46:21Z
2023-08-02T11:47:06Z,42.805,6.029,13.3095,4.60142,2470.553,2023-8-02T13:49:24Z
2023-08-02T11:50:09Z,42.805,6.029,13.3093,4.60131,2470.591,2023-8-02T13:52:27Z
2023-08-02T11:53:12Z,42.805,6.029,13.3088,4.60146,2470.553,2023-8-02T13:55:30Z
2023-08-02T11:56:15Z,42.805,6.029,13.3096,4.60106,2470.553,2023-8-02T13:58:34Z
2023-08-02T11:59:18Z,42.805,6.029,13.3078,4.60135,2470.577,2023-8-02T14:01:37Z
2023-08-02T12:02:21Z,42.805,6.029,13.3080,4.60105,2470.591,2023-8-02T14:04:40Z
2023-08-02T12:05:25Z,42.805,6.029,13.3069,4.60162,2470.544,2023-8-02T14:07:43Z
2023-08-02T12:08:28Z,42.805,6.029,13.3076,4.60140,2470.577,2023-8-02T14:10:46Z
2023-08-02T12:11:31Z,42.805,6.029,13.3076,4.60138,2470.553,2023-8-02T14:13:49Z
2023-08-02T12:14:34Z,42.805,6.029,13.3076,4.60117,2470.577,2023-8-02T14:16:52Z
2023-08-02T12:17:37Z,42.805,6.029,13.3065,4.60127,2470.577,2023-8-02T14:19:55Z
2023-08-02T12:20:40Z,42.805,6.029,13.3065,4.60112,2470.53,2023-8-02T14:22:58Z
2023-08-02T12:23:43Z,42.805,6.029,13.3073,4.60142,2470.567,2023-8-02T14:26:01Z
2023-08-02T12:26:46Z,42.805,6.029,13.3051,4.60132,2470.567,2023-8-02T14:29:04Z
2023-08-02T12:29:49Z,42.805,6.029,13.3059,4.60139,2470.544,2023-8-02T14:32:07Z
2023-08-02T12:32:52Z,42.805,6.029,13.3073,4.60137,2470.567,2023-8-02T14:35:11Z
2023-08-02T12:35:55Z,42.805,6.029,13.3058,4.60125,2470.567,2023-8-02T14:38:14Z
2023-08-02T12:38:58Z,42.805,6.029,13.3051,4.60109,2470.544,2023-8-02T14:41:17Z
2023-08-02T12:42:02Z,42.805,6.029,13.3058,4.60128,2470.553,2023-8-02T14:44:20Z
2023-08-02T12:45:05Z,42.805,6.029,13.3041,4.60117,2470.544,2023-8-02T14:47:23Z
2023-08-02T12:48:08Z,42.805,6.029,13.3043,4.60131,2470.567,2023-8-02T14:50:26Z
2023-08-02T12:51:11Z,42.805,6.029,13.3043,4.60120,2470.53,2023-8-02T14:53:29Z
2023-08-02T12:54:14Z,42.805,6.029,13.3054,4.60101,2470.567,2023-8-02T14:56:32Z
2023-08-02T12:57:17Z,42.805,6.029,13.3054,4.60108,2470.544,2023-8-02T14:59:35Z
2023-08-02T13:00:20Z,42.805,6.029,13.3048,4.60114,2470.53,2023-8-02T15:02:38Z
2023-08-02T13:03:23Z,42.805,6.029,13.3059,4.60113,2470.567,2023-8-02T15:05:41Z
2023-08-02T13:06:26Z,42.805,6.029,13.3071,4.60115,2470.553,2023-8-02T15:08:44Z
2023-08-02T13:09:29Z,42.805,6.029,13.3064,4.60114,2470.544,2023-8-02T15:11:47Z
2023-08-02T13:12:32Z,42.805,6.029,13.3052,4.60121,2470.53,2023-8-02T15:14:51Z
2023-08-02T13:15:35Z,42.805,6.029,13.3073,4.60125,2470.53,2023-8-02T15:17:54Z
2023-08-02T13:18:38Z,42.805,6.029,13.3064,4.60114,2470.507,2023-8-02T15:20:57Z
2023-08-02T13:21:42Z,42.805,6.029,13.3078,4.60116,2470.544,2023-8-02T15:24:00Z
2023-08-02T13:24:45Z,42.805,6.029,13.3065,4.60122,2470.507,2023-8-02T15:27:03Z
2023-08-02T13:27:48Z,42.805,6.029,13.3079,4.60119,2470.483,2023-8-02T15:30:06Z
2023-08-02T13:30:51Z,42.805,6.029,13.3073,4.60117,2470.52,2023-8-02T15:33:09Z
2023-08-02T13:33:54Z,42.805,6.029,13.3048,4.60111,2470.544,2023-8-02T15:36:12Z
2023-08-02T13:36:57Z,42.805,6.029,13.3058,4.60110,2470.507,2023-8-02T15:39:15Z
2023-08-02T13:40:00Z,42.805,6.029,13.3067,4.60115,2470.52,2023-8-02T15:42:18Z
2023-08-02T13:43:03Z,42.805,6.029,13.3050,4.60116,2470.53,2023-8-02T15:45:21Z
2023-08-02T13:46:06Z,42.805,6.029,13.3065,4.60114,2470.567,2023-8-02T15:48:24Z
2023-08-02T13:49:09Z,42.805,6.029,13.3068,4.60110,2470.544,2023-8-02T15:51:27Z
2023-08-02T13:52:12Z,42.805,6.029,13.3051,4.60118,2470.507,2023-8-02T15:54:31Z
2023-08-02T13:55:15Z,42.805,6.029,13.3070,4.60132,2470.53,2023-8-02T15:57:34Z
2023-08-02T13:58:18Z,42.805,6.029,13.3078,4.60123,2470.53,2023-8-02T16:00:37Z
2023-08-02T14:01:22Z,42.805,6.029,13.3077,4.60123,2470.544,2023-8-02T16:03:40Z
2023-08-02T14:04:25Z,42.805,6.029,13.3069,4.60114,2470.507,2023-8-02T16:06:43Z
2023-08-02T14:07:28Z,42.805,6.029,13.3075,4.60122,2470.507,2023-8-02T16:09:46Z
2023-08-02T14:10:31Z,42.805,6.029,13.3069,4.60122,2470.52,2023-8-02T16:12:49Z
2023-08-02T14:13:34Z,42.805,6.029,13.3089,4.60112,2470.544,2023-8-02T16:15:52Z
2023-08-02T14:16:37Z,42.805,6.029,13.3070,4.60112,2470.544,2023-8-02T16:18:55Z
2023-08-02T14:19:40Z,42.805,6.029,13.3062,4.60135,2470.507,2023-8-02T16:21:58Z
2023-08-02T14:22:43Z,42.805,6.029,13.3072,4.60138,2470.52,2023-8-02T16:25:01Z
2023-08-02T14:25:46Z,42.805,6.029,13.3082,4.60132,2470.507,2023-8-02T16:28:04Z
2023-08-02T14:28:49Z,42.805,6.029,13.3070,4.60117,2470.507,2023-8-02T16:31:08Z
2023-08-02T14:31:52Z,42.805,6.029,13.3063,4.60111,2470.507,2023-8-02T16:34:10Z
2023-08-02T14:34:55Z,42.805,6.029,13.3082,4.60114,2470.52,2023-8-02T16:37:13Z
2023-08-02T14:37:58Z,42.805,6.029,13.3069,4.60132,2470.553,2023-8-02T16:40:16Z
2023-08-02T14:41:01Z,42.805,6.029,13.3067,4.60130,2470.544,2023-8-02T16:43:19Z
2023-08-02T14:44:04Z,42.805,6.029,13.3075,4.60135,2470.53,2023-8-02T16:46:22Z
2023-08-02T14:47:07Z,42.805,6.029,13.3076,4.60129,2470.544,2023-8-02T16:49:25Z
2023-08-02T14:50:10Z,42.805,6.029,13.3091,4.60122,2470.52,2023-8-02T16:52:28Z
2023-08-02T14:53:13Z,42.805,6.029,13.3101,4.60118,2470.544,2023-8-02T16:55:31Z
2023-08-02T14:56:16Z,42.805,6.029,13.3095,4.60116,2470.507,2023-8-02T16:58:35Z
2023-08-02T14:59:19Z,42.805,6.029,13.3102,4.60132,2470.553,2023-8-02T17:01:38Z
2023-08-02T15:02:22Z,42.805,6.029,13.3031,4.60142,2470.52,2023-8-02T17:04:41Z
2023-08-02T15:05:26Z,42.805,6.029,13.3058,4.60114,2470.53,2023-8-02T17:07:44Z
2023-08-02T15:08:29Z,42.805,6.029,13.3061,4.60121,2470.53,2023-8-02T17:10:47Z
2023-08-02T15:11:32Z,42.805,6.029,13.3058,4.60113,2470.53,2023-8-02T17:13:50Z
2023-08-02T15:14:35Z,42.805,6.029,13.3106,4.60119,2470.53,2023-8-02T17:16:53Z